COSMOS 1844

Last updated on Sat Jul 05 2025 00:02:13 GMT+0000 (Coordinated Universal Time)

1 17973U 87041A 25185.46833892 -.00000178 00000+0 -67174-4 0 9997 2 17973 70.8975 197.7080 0029659 30.8797 329.4061 14.14482538968482
UTC large
Height (km)
Speed (km/s)
/
Latitude / Longitude
Inclination (degrees)
Orbital Period (minutes)
Azimuth
Elevation
Range (km)
Doppler Factor

Next 0 passes for location: London (51.5072 / 0.1276)

Sorry there are no passes over London.